| time (UTC) | temp F | wind direction | speed MPH | gust MPH | rain 1hr in | rain 24hr in | rain mn in | humidity % | barometer mb |
| 20260504234509 | 62 | 221 | 0.0 | 0.0 | 0.05 | 0.06 | 0.06 | 3 | 1014.6 |
| 20260504233004 | 62 | 217 | 0.0 | 0.0 | 0.05 | 0.05 | 0.05 | 3 | 1014.5 |
| 20260504231548 | 62 | 208 | 0.0 | 0.0 | 0.03 | 0.03 | 0.03 | 3 | 1014.4 |
| 20260504230044 | 62 | 191 | 0.0 | 0.0 | 0.02 | 0.02 | 0.02 | 3 | 1014.4 |
| 20260504224538 | 61 | 197 | 0.0 | 0.0 | 0.01 | 0.01 | 0.01 | 17 | 1014.5 |
| 20260504223037 | 61 | 229 | 0.0 | 0.0 | 0.00 | 0.00 | 0.00 | 44 | 1014.4 |
| 20260504221536 | 61 | 221 | 0.0 | 1.0 | 0.00 | 0.00 | 0.00 | 55 | 1014.5 |
| 20260504220025 | 62 | 219 | 0.0 | 1.0 | 0.00 | 0.00 | 0.00 | 54 | 1014.2 |
| 20260504214520 | 62 | 200 | 0.0 | 1.0 | 0.00 | 0.00 | 0.00 | 61 | 1014.2 |
| 20260504213015 | 63 | 167 | 0.0 | 2.0 | 0.00 | 0.00 | 0.00 | 64 | 1014.2 |
| 20260504211555 | 63 | 262 | 0.0 | 0.0 | 0.00 | 0.00 | 0.00 | 62 | 1014.4 |
| 20260504210052 | 64 | 232 | 0.0 | 3.0 | 0.00 | 0.00 | 0.00 | 60 | 1014.3 |
| 20260504204534 | 65 | 198 | 0.0 | 6.0 | 0.00 | 0.00 | 0.00 | 60 | 1014.3 |
| 20260504203025 | 65 | 238 | 0.0 | 9.0 | 0.00 | 0.00 | 0.00 | 60 | 1014.3 |
| 20260504201612 | 64 | 231 | 0.0 | 4.0 | 0.00 | 0.00 | 0.00 | 62 | 1014.3 |
| 20260504200108 | 65 | 295 | 0.0 | 1.0 | 0.00 | 0.00 | 0.00 | 62 | 1014.3 |
| 20260504194539 | 65 | 200 | 0.0 | 0.0 | 0.00 | 0.00 | 0.00 | 61 | 1014.3 |
| 20260504193031 | 65 | 196 | 0.0 | 1.0 | 0.00 | 0.00 | 0.00 | 60 | 1014.4 |
| 20260504191509 | 66 | 198 | 0.0 | 1.0 | 0.00 | 0.00 | 0.00 | 57 | 1014.4 |
| 20260504184538 | 67 | 149 | 0.0 | 1.0 | 0.00 | 0.00 | 0.00 | 59 | 1014.5 |
| 20260504183035 | 66 | 232 | 0.0 | 0.0 | 0.00 | 0.00 | 0.00 | 59 | 1014.5 |
| 20260504181513 | 66 | 217 | 0.0 | 0.0 | 0.00 | 0.00 | 0.00 | 59 | 1014.4 |
| 20260504180008 | 66 | 172 | 0.0 | 0.0 | 0.00 | 0.00 | 0.00 | 59 | 1014.5 |
| 20260504174549 | 64 | 113 | 0.0 | 0.0 | 0.00 | 0.00 | 0.00 | 58 | 1014.5 |
| 20260504173042 | 63 | 326 | 0.0 | 0.0 | 0.00 | 0.00 | 0.00 | 55 | 1014.6 |
| 20260504171522 | 63 | 233 | 0.0 | 0.0 | 0.00 | 0.00 | 0.00 | 24 | 1014.6 |
| 20260504160105 | 55 | 211 | 0.0 | 0.0 | 0.00 | 0.00 | 0.00 | 3 | 1014.5 |
| 20260504081549 | 55 | 102 | 0.0 | 0.0 | 0.00 | 0.00 | 0.00 | 3 | 1013.8 |
| 20260504044539 | 59 | 187 | 0.0 | 0.0 | 0.00 | 0.00 | 0.00 | 3 | 1013.4 |
| 20260504043034 | 59 | 208 | 0.0 | 0.0 | 0.00 | 0.00 | 0.00 | 3 | 1013.3 |
| 20260504041513 | 59 | 223 | 0.0 | 0.0 | 0.00 | 0.00 | 0.00 | 3 | 1013.2 |
| 20260504040051 | 59 | 219 | 0.0 | 0.0 | 0.00 | 0.00 | 0.00 | 3 | 1013.1 |
| 20260504034550 | 59 | 211 | 0.0 | 0.0 | 0.00 | 0.00 | 0.00 | 3 | 1012.8 |
| 20260504033027 | 58 | 215 | 0.0 | 0.0 | 0.00 | 0.00 | 0.00 | 13 | 1012.7 |
| 20260504031523 | 58 | 188 | 0.0 | 0.0 | 0.00 | 0.00 | 0.00 | 30 | 1012.5 |
| 20260504030025 | 58 | 183 | 0.0 | 0.0 | 0.00 | 0.00 | 0.00 | 41 | 1012.5 |
| 20260504024514 | 59 | 203 | 0.0 | 0.0 | 0.00 | 0.00 | 0.00 | 51 | 1012.4 |
| 20260504023013 | 60 | 205 | 0.0 | 0.0 | 0.00 | 0.00 | 0.00 | 56 | 1012.1 |
| 20260504021504 | 61 | 229 | 0.0 | 1.0 | 0.00 | 0.00 | 0.00 | 58 | 1012.1 |
| 20260504020140 | 61 | 135 | 0.0 | 3.0 | 0.00 | 0.00 | 0.00 | 61 | 1012.1 |
| 20260504014604 | 62 | 195 | 0.0 | 5.0 | 0.00 | 0.00 | 0.00 | 62 | 1012.1 |
| 20260504013043 | 63 | 243 | 0.0 | 1.0 | 0.00 | 0.00 | 0.00 | 62 | 1012.2 |
| 20260504011529 | 64 | 211 | 0.0 | 4.0 | 0.00 | 0.00 | 0.00 | 60 | 1012.1 |
| 20260504010008 | 62 | 262 | 0.0 | 5.0 | 0.00 | 0.00 | 0.00 | 61 | 1012.2 |
| 20260504004503 | 62 | 276 | 0.0 | 2.0 | 0.00 | 0.00 | 0.00 | 60 | 1012.2 |
| 20260504003052 | 61 | 264 | 0.0 | 3.0 | 0.00 | 0.00 | 0.00 | 61 | 1012.2 |
| 20260504001615 | 61 | 217 | 0.0 | 7.0 | 0.00 | 0.00 | 0.00 | 63 | 1012.3 |
| 20260504000041 | 62 | 313 | 0.0 | 3.0 | 0.00 | 0.00 | 0.00 | 63 | 1012.2 |